Regional Weather Roundup
Issued by NWS

Home | Current Version | Previous Version | Graphics & Text | Print | Product List | Glossary On
Versions: 1 2 3 4 5 6 7 8 9 10 11 12 13 14 15 16 17 18 19 20 21 22 23 24 25 26 27 28 29 30 31 32 33 34 35 36 37 38 39 40 41 42 43 44 45 46 47 48 49 50
000
ASUS43 KIND 081659
RWRIN

WEATHER ROUNDUP FOR INDIANA
NATIONAL WEATHER SERVICE INDIANAPOLIS IN
1200 PM EST MON FEB 08 2016

NOTE: "FAIR" INDICATES FEW OR NO CLOUDS BELOW 12,000 FEET WITH NO
SIGNIFICANT WEATHER AND/OR OBSTRUCTIONS TO VISIBILITY.

* - STATION DOES NOT REPORT WEATHER SUCH AS PRECIPITATION OR FOG.

+ - STATION NOT QUALITY CONTROLLED BY THE NATIONAL WEATHER SERVICE.
    USE DATA WITH CAUTION...ESPECIALLY DEWPOINT AND RELATIVE
    HUMIDITY OBSERVATIONS.

INZ001>003-010>013-019-020-081800-
NORTHWEST INDIANA

CITY           SKY/WX    TMP DP  RH WIND       PRES   REMARKS
GARY /AIRPORT/ CLOUDY    32  21  64 W15       29.67S WCI  22
RENSSELAER +   CLOUDY    32  23  69 W10       29.69R WCI  24
VALPARAISO     CLOUDY    30  27  86 W13       29.66R WCI  20

$$

LMZ046-743>745-081800-
SOUTHERN LAKE MICHIGAN

STATION/POSITION TIME  TEMP    WIND        PRES    WAVE
                       AIR SEA DIR/SP/G            HT
                 (UTC) (F)     (DEG/KT/KT) (MB)    (FT)
BURNS HARBOR     1600   32     270/ 13/ 21 1005.1R
MICHIGAN CITY    1600   30     250/ 19/ 20   N/A

$$

INZ004-005-014>016-021>024-081800-
NORTH CENTRAL INDIANA

CITY           SKY/WX    TMP DP  RH WIND       PRES   REMARKS
ELKHART          N/A     36  28  75 W8        29.64S
GOSHEN         CLOUDY    35  28  75 SW8       29.63F WCI  29
PERU/GRISSOM   CLOUDY    35  29  79 VRB3      29.63F
SOUTH BEND     CLOUDY    32  29  88 W7        29.64S WCI  26

$$

INZ006>009-017-018-025>027-081800-
NORTHEAST INDIANA

CITY           SKY/WX    TMP DP  RH WIND       PRES   REMARKS
ANGOLA *+      CLOUDY    36  25  64 NW9       29.61F
FORT WAYNE     PTSUNNY   37  30  75 W12       29.64F

$$

INZ028-029-035-036-043>045-051>053-081800-
WEST CENTRAL INDIANA

CITY           SKY/WX    TMP DP  RH WIND       PRES   REMARKS
GREENCASTLE +  LGT SNOW  34  28  80 W6        29.67F WCI  29
LAFAYETTE      CLOUDY    30  24  78 NW14G22   29.69R WCI  19
TERRE HAUTE    LGT SNOW  30  26  85 NW18G29   29.72R VSB 1   WCI  18

$$

INZ030>032-037>040-046>048-054>057-064-065-081800-
CENTRAL INDIANA

CITY           SKY/WX    TMP DP  RH WIND       PRES   REMARKS
COLUMBUS       CLOUDY    36  34  93 W7        29.68F
GREENWOOD *+   CLOUDY    37  32  81 W10       29.67S
INDIANAPOLIS   FLURRIES  36  30  79 W12       29.66S
-EAGLE CREEK   FLURRIES  35  29  78 W9        29.66S WCI  28
KOKOMO *+        N/A     36  28  75 W8        29.65F
MT COMFORT *+  CLOUDY    37  32  81 W7        29.66S
SHELBYVILLE    CLOUDY    38  32  79 W6        29.66S

$$

INZ033-034-041-042-049-050-058-059-081800-
EAST CENTRAL INDIANA

CITY           SKY/WX    TMP DP  RH WIND       PRES   REMARKS
MUNCIE         CLOUDY    37  31  78 W9        29.65S

$$

INZ060-061-067>069-081>083-085>088-081800-
SOUTHWEST INDIANA

CITY           SKY/WX    TMP DP  RH WIND       PRES   REMARKS
EVANSVILLE     CLOUDY    36  25  64 W18G26    29.78R
HUNTINGBURG *+ PTSUNNY   36  32  87 NW10      29.74S

$$

INZ062-063-066-070>080-084-089>092-081800-
SOUTH CENTRAL AND SOUTHEAST INDIANA

CITY           SKY/WX    TMP DP  RH WIND       PRES   REMARKS
BLOOMINGTON    PTSUNNY   35  32  88 W7        29.68S WCI  29
MADISON *+     CLOUDY    34  32  93 W8        29.70S WCI  27
SEYMOUR +      CLOUDY    39  34  81 W13G18    29.69S

$$




USA.gov is the U.S. government's official web portal to all federal, state and local government web resources and services.